Location: ??
(34.9170°N, 135.5016°E)
Time: 18:12:42
(UTC+00:00)

Cosmos 1400 Rocket - Pass Details

Date: 29 October 2020
Orbit: 521 x 568 km, 81.2° (Epoch: 30 November)

Event Time Altitude Azimuth Distance (km) Brightness Sun altitude
Rises 20:44:35 0° 331° (NNW) 2,677 5.9 -7.3°
Reaches altitude 10° 20:47:22 10° 310° (NW) 1,774 4.9 -6.7°
Maximum altitude 20:49:49 16° 271° (W) 1,411 4.3 -6.2°
Drops below altitude 10° 20:52:15 10° 231° (SW) 1,755 5.0 -5.7°
Sets 20:55:00 0° 210° (SSW) 2,634 6.1 -5.2°
